DAL2018 KJFK-KPBI

Flight info

Callsign DAL2018
Flight time N/A
Altitude 38000
Route WAVEY EMJAY Q167 ZJAAY KALDA Q131 WAALT Y289 DULEE CLMNT2
Aircraft B738/M-SDE2E3FGHIRWXY/LB1

Departure

Time 2026-04-30 21:29
Airport John F. Kennedy International Airport (KJFK)

Arrival

Time N/A
Airport Palm Beach International Airport (KPBI)
Time Latitude Longitude Altitude Speed Heading
2026-04-30 21:02 40.63840 -73.78060 20 ft 0 kts 254°
2026-04-30 21:15 40.63842 -73.78050 20 ft 2 kts 254°
2026-04-30 21:15 40.63847 -73.78029 21 ft 2 kts 254°
2026-04-30 21:16 40.63851 -73.78009 23 ft 2 kts 248°
2026-04-30 21:16 40.63859 -73.77990 21 ft 2 kts 212°
2026-04-30 21:16 40.63870 -73.77985 22 ft 1 kts 163°
2026-04-30 21:16 40.63875 -73.77987 22 ft 0 kts 158°
2026-04-30 21:22 40.63866 -73.77979 20 ft 0 kts 142°
2026-04-30 21:23 40.63845 -73.77958 21 ft 12 kts 145°
2026-04-30 21:23 40.63743 -73.77910 20 ft 16 kts 173°
2026-04-30 21:23 40.63549 -73.77812 19 ft 15 kts 121°
2026-04-30 21:24 40.63525 -73.77699 21 ft 7 kts 52°
2026-04-30 21:24 40.63598 -73.77637 19 ft 18 kts 32°
2026-04-30 21:24 40.63705 -73.77553 19 ft 18 kts 31°
2026-04-30 21:24 40.63801 -73.77478 19 ft 17 kts 30°
2026-04-30 21:25 40.63999 -73.77324 20 ft 16 kts 31°
2026-04-30 21:25 40.64092 -73.77252 20 ft 15 kts 31°
2026-04-30 21:25 40.64180 -73.77181 22 ft 15 kts 31°
2026-04-30 21:26 40.64347 -73.77050 20 ft 13 kts 30°
2026-04-30 21:26 40.64429 -73.76999 20 ft 13 kts 18°
2026-04-30 21:27 40.64607 -73.76911 19 ft 18 kts 32°
2026-04-30 21:27 40.64715 -73.76826 19 ft 18 kts 30°
2026-04-30 21:27 40.64821 -73.76745 21 ft 17 kts 30°
2026-04-30 21:28 40.65013 -73.76592 20 ft 15 kts 31°
2026-04-30 21:28 40.65099 -73.76516 20 ft 15 kts 54°
2026-04-30 21:28 40.65009 -73.76370 21 ft 12 kts 198°
2026-04-30 21:29 40.64834 -73.76503 20 ft 67 kts 211°
2026-04-30 21:29 40.62150 -73.78605 1034 ft 196 kts 212°
2026-04-30 21:30 40.59737 -73.80425 2502 ft 215 kts 211°
2026-04-30 21:31 40.55248 -73.83769 4043 ft 261 kts 211°
2026-04-30 21:31 40.52047 -73.86077 4889 ft 263 kts 207°
2026-04-30 21:32 40.48728 -73.88113 5023 ft 265 kts 197°
2026-04-30 21:32 40.46894 -73.88172 5463 ft 267 kts 172°
2026-04-30 21:32 40.45114 -73.87295 5804 ft 283 kts 147°
2026-04-30 21:32 40.43853 -73.85287 6464 ft 290 kts 121°
2026-04-30 21:33 40.43199 -73.83763 7012 ft 290 kts 121°
2026-04-30 21:33 40.41225 -73.79083 8530 ft 297 kts 121°
2026-04-30 21:33 40.40203 -73.76706 9281 ft 301 kts 122°
2026-04-30 21:34 40.39158 -73.74308 9993 ft 305 kts 122°
2026-04-30 21:34 40.36914 -73.69245 10583 ft 343 kts 123°
2026-04-30 21:34 40.35670 -73.66464 10746 ft 364 kts 123°
2026-04-30 21:35 40.34355 -73.63527 11021 ft 380 kts 123°
2026-04-30 21:35 40.33003 -73.60509 11570 ft 387 kts 123°
2026-04-30 21:35 40.31636 -73.57461 12253 ft 390 kts 123°
2026-04-30 21:35 40.30257 -73.54388 12934 ft 394 kts 124°
2026-04-30 21:36 40.28857 -73.51277 13614 ft 398 kts 124°
2026-04-30 21:36 40.27444 -73.48140 14244 ft 402 kts 125°
2026-04-30 21:37 40.22745 -73.38955 16105 ft 406 kts 140°
2026-04-30 21:37 40.20621 -73.36561 16730 ft 402 kts 150°
2026-04-30 21:37 40.18312 -73.34477 17371 ft 405 kts 152°
2026-04-30 21:37 40.15978 -73.32379 17971 ft 409 kts 151°
2026-04-30 21:38 40.13580 -73.30366 18480 ft 407 kts 161°
2026-04-30 21:38 40.10916 -73.29362 19020 ft 394 kts 180°
2026-04-30 21:38 40.08231 -73.29528 19621 ft 383 kts 197°
2026-04-30 21:38 40.06957 -73.29963 19904 ft 380 kts 203°
2026-04-30 21:39 40.04820 -73.31256 20372 ft 376 kts 217°
2026-04-30 21:39 40.02759 -73.33342 20896 ft 376 kts 223°
2026-04-30 21:39 40.00778 -73.35585 21415 ft 378 kts 224°
2026-04-30 21:39 39.98801 -73.37864 21915 ft 381 kts 224°
2026-04-30 21:40 39.96805 -73.40152 22426 ft 383 kts 224°
2026-04-30 21:40 39.94789 -73.42438 22937 ft 385 kts 223°
2026-04-30 21:40 39.92756 -73.44721 23417 ft 388 kts 223°
2026-04-30 21:40 39.90700 -73.47019 23812 ft 390 kts 223°
2026-04-30 21:41 39.88633 -73.49323 24203 ft 392 kts 223°
2026-04-30 21:41 39.86555 -73.51635 24600 ft 394 kts 223°
2026-04-30 21:41 39.84462 -73.53963 24978 ft 396 kts 223°
2026-04-30 21:41 39.82363 -73.56295 25352 ft 398 kts 223°
2026-04-30 21:42 39.80251 -73.58641 25716 ft 400 kts 223°
2026-04-30 21:42 39.78129 -73.60997 26074 ft 402 kts 223°
2026-04-30 21:42 39.75992 -73.63368 26417 ft 404 kts 223°
2026-04-30 21:42 39.73849 -73.65743 26752 ft 406 kts 223°
2026-04-30 21:43 39.71698 -73.68126 27089 ft 408 kts 223°
2026-04-30 21:43 39.69529 -73.70527 27400 ft 410 kts 223°
2026-04-30 21:43 39.67348 -73.72938 27706 ft 412 kts 223°
2026-04-30 21:43 39.65159 -73.75357 28022 ft 414 kts 223°
2026-04-30 21:44 39.62961 -73.77783 28322 ft 416 kts 223°
2026-04-30 21:44 39.60752 -73.80220 28625 ft 418 kts 223°
2026-04-30 21:44 39.58536 -73.82662 29051 ft 416 kts 223°
2026-04-30 21:44 39.56340 -73.85078 29547 ft 413 kts 223°
2026-04-30 21:45 39.54153 -73.87484 30000 ft 411 kts 223°
2026-04-30 21:45 39.51975 -73.89879 30350 ft 411 kts 223°
2026-04-30 21:45 39.49795 -73.92274 30629 ft 411 kts 223°
2026-04-30 21:45 39.47608 -73.94675 30919 ft 412 kts 223°
2026-04-30 21:46 39.45430 -73.97065 31264 ft 411 kts 223°
2026-04-30 21:46 39.43251 -73.99452 31608 ft 410 kts 223°
2026-04-30 21:46 39.41074 -74.01835 31914 ft 410 kts 223°
2026-04-30 21:46 39.38901 -74.04214 32218 ft 409 kts 223°
2026-04-30 21:47 39.36726 -74.06594 32542 ft 409 kts 223°
2026-04-30 21:47 39.34721 -74.08788 32838 ft 408 kts 223°
2026-04-30 21:47 39.32581 -74.11128 33134 ft 408 kts 223°
2026-04-30 21:47 39.30389 -74.13523 33437 ft 407 kts 223°
2026-04-30 21:48 39.28227 -74.15884 33726 ft 407 kts 223°
2026-04-30 21:48 39.26091 -74.18216 33987 ft 407 kts 223°
2026-04-30 21:48 39.23904 -74.20600 34228 ft 407 kts 223°
2026-04-30 21:48 39.21741 -74.22956 34462 ft 406 kts 223°
2026-04-30 21:49 39.19613 -74.25272 34709 ft 406 kts 223°
2026-04-30 21:49 39.17457 -74.27617 34938 ft 406 kts 223°
2026-04-30 21:49 39.15300 -74.29960 35168 ft 405 kts 223°
2026-04-30 21:49 39.13147 -74.32298 35385 ft 405 kts 223°
2026-04-30 21:50 39.10992 -74.34636 35604 ft 405 kts 223°
2026-04-30 21:50 39.08840 -74.36969 35839 ft 404 kts 224°
2026-04-30 21:50 39.06687 -74.39301 36056 ft 404 kts 224°
2026-04-30 21:50 39.04533 -74.41632 36253 ft 404 kts 224°
2026-04-30 21:51 39.02386 -74.43953 36466 ft 404 kts 224°
2026-04-30 21:51 39.00236 -74.46277 36686 ft 403 kts 224°
2026-04-30 21:51 38.98085 -74.48600 36881 ft 404 kts 224°
2026-04-30 21:51 38.95933 -74.50923 37030 ft 405 kts 224°
2026-04-30 21:52 38.93775 -74.53251 37186 ft 405 kts 224°
2026-04-30 21:52 38.91669 -74.55636 37383 ft 404 kts 226°
2026-04-30 21:52 38.89603 -74.58071 37603 ft 403 kts 226°
2026-04-30 21:52 38.87547 -74.60515 37791 ft 402 kts 226°
2026-04-30 21:53 38.83412 -74.65399 37841 ft 406 kts 226°
2026-04-30 21:53 38.79247 -74.70267 37845 ft 403 kts 226°
2026-04-30 21:54 38.75102 -74.75089 37847 ft 401 kts 225°
2026-04-30 21:54 38.70817 -74.79661 37851 ft 401 kts 223°
2026-04-30 21:55 38.66590 -74.84002 37847 ft 400 kts 224°
2026-04-30 21:55 38.62266 -74.88474 37853 ft 400 kts 224°
2026-04-30 21:56 38.57947 -74.92963 37860 ft 401 kts 224°
2026-04-30 21:56 38.53605 -74.97471 37865 ft 403 kts 224°
2026-04-30 21:57 38.49375 -75.02082 37869 ft 403 kts 226°
2026-04-30 21:57 38.45056 -75.06763 37876 ft 407 kts 223°
2026-04-30 21:58 38.40535 -75.11066 37875 ft 409 kts 221°
2026-04-30 21:58 38.35934 -75.15370 37877 ft 410 kts 222°
2026-04-30 21:59 38.31341 -75.19701 37879 ft 411 kts 222°
2026-04-30 22:00 38.24469 -75.26209 37873 ft 410 kts 223°
2026-04-30 22:00 38.17613 -75.32692 37863 ft 409 kts 223°
2026-04-30 22:01 38.13048 -75.37001 37864 ft 408 kts 223°
2026-04-30 22:01 38.08501 -75.41286 37870 ft 407 kts 223°
2026-04-30 22:02 38.03950 -75.45539 37879 ft 407 kts 222°
2026-04-30 22:02 37.99279 -75.49589 37882 ft 406 kts 221°
2026-04-30 22:03 37.94738 -75.53480 37872 ft 406 kts 221°
2026-04-30 22:03 37.90075 -75.57513 37875 ft 406 kts 221°
2026-04-30 22:04 37.85411 -75.61548 37872 ft 406 kts 221°
2026-04-30 22:05 37.77689 -75.66376 37857 ft 416 kts 212°
2026-04-30 22:05 37.72403 -75.69340 37859 ft 416 kts 212°
2026-04-30 22:06 37.67128 -75.72321 37857 ft 415 kts 213°
2026-04-30 22:06 37.59227 -75.76802 37856 ft 415 kts 213°
2026-04-30 22:07 37.53960 -75.79787 37858 ft 415 kts 213°
2026-04-30 22:07 37.48698 -75.82764 37852 ft 414 kts 213°
2026-04-30 22:08 37.43439 -75.85734 37853 ft 414 kts 213°
2026-04-30 22:08 37.38188 -75.88695 37854 ft 414 kts 213°
2026-04-30 22:09 37.32937 -75.91652 37860 ft 414 kts 213°
2026-04-30 22:09 37.27677 -75.94609 37850 ft 413 kts 213°
2026-04-30 22:10 37.22428 -75.97557 37865 ft 413 kts 214°
2026-04-30 22:10 37.17171 -76.00504 37859 ft 414 kts 214°
2026-04-30 22:11 37.09398 -76.05108 37855 ft 408 kts 218°
2026-04-30 22:12 37.04442 -76.08548 37857 ft 407 kts 219°
2026-04-30 22:12 36.99499 -76.12005 37856 ft 408 kts 219°
2026-04-30 22:13 36.94535 -76.15447 37855 ft 408 kts 219°
2026-04-30 22:13 36.90408 -76.18291 37847 ft 408 kts 218°
2026-04-30 22:14 36.85431 -76.21712 37850 ft 408 kts 219°
2026-04-30 22:14 36.80461 -76.25122 37847 ft 407 kts 219°
2026-04-30 22:15 36.75495 -76.28523 37874 ft 407 kts 219°
2026-04-30 22:15 36.70541 -76.31913 37871 ft 406 kts 219°
2026-04-30 22:16 36.65581 -76.35302 37867 ft 406 kts 219°
2026-04-30 22:17 36.55683 -76.42049 37872 ft 405 kts 219°
2026-04-30 22:17 36.48260 -76.47096 37864 ft 405 kts 219°
2026-04-30 22:18 36.40840 -76.52131 37859 ft 406 kts 219°
2026-04-30 22:19 36.33399 -76.57169 37867 ft 406 kts 219°
2026-04-30 22:20 36.25947 -76.62203 37879 ft 407 kts 219°
2026-04-30 22:20 36.18472 -76.67241 37895 ft 408 kts 219°
2026-04-30 22:21 36.13474 -76.70604 37897 ft 409 kts 219°
2026-04-30 22:21 36.08471 -76.73965 37892 ft 409 kts 219°
2026-04-30 22:22 36.03461 -76.77325 37897 ft 410 kts 219°
2026-04-30 22:22 35.98452 -76.80681 37885 ft 409 kts 219°
2026-04-30 22:23 35.93442 -76.84033 37883 ft 410 kts 219°
2026-04-30 22:23 35.88404 -76.87335 37868 ft 411 kts 218°
2026-04-30 22:24 35.83268 -76.90486 37872 ft 412 kts 217°
2026-04-30 22:24 35.78123 -76.93612 37880 ft 412 kts 217°
2026-04-30 22:25 35.72983 -76.96754 37891 ft 412 kts 217°
2026-04-30 22:25 35.67844 -76.99904 37888 ft 413 kts 217°
2026-04-30 22:26 35.60139 -77.04626 37880 ft 413 kts 217°
2026-04-30 22:27 35.54989 -77.07776 37885 ft 414 kts 217°
2026-04-30 22:27 35.47251 -77.12500 37883 ft 414 kts 217°
2026-04-30 22:28 35.39506 -77.17218 37878 ft 415 kts 217°
2026-04-30 22:29 35.29142 -77.23516 37889 ft 416 kts 217°
2026-04-30 22:31 35.10925 -77.34542 37892 ft 419 kts 217°
2026-04-30 22:32 34.97837 -77.42430 37888 ft 420 kts 217°
2026-04-30 22:33 34.84697 -77.50321 37895 ft 422 kts 217°
2026-04-30 22:35 34.71490 -77.58224 37903 ft 424 kts 217°
2026-04-30 22:36 34.58377 -77.66044 37888 ft 426 kts 216°
2026-04-30 22:37 34.49620 -77.69189 37884 ft 447 kts 202°
2026-04-30 22:37 34.46571 -77.69928 37882 ft 447 kts 201°
2026-04-30 22:38 34.34359 -77.72945 37872 ft 448 kts 202°
2026-04-30 22:39 34.25219 -77.75269 37871 ft 448 kts 202°
2026-04-30 22:40 34.06913 -77.79912 37871 ft 448 kts 201°
2026-04-30 22:41 33.91677 -77.83759 37881 ft 449 kts 201°
2026-04-30 22:43 33.73413 -77.88755 37887 ft 445 kts 205°
2026-04-30 22:44 33.61512 -77.92915 37883 ft 447 kts 205°
2026-04-30 22:45 33.43493 -77.99010 37875 ft 450 kts 204°
2026-04-30 22:47 33.25372 -78.05120 37885 ft 452 kts 204°
2026-04-30 22:48 33.13226 -78.09201 37886 ft 454 kts 204°
2026-04-30 22:49 32.94983 -78.15307 37880 ft 455 kts 204°
2026-04-30 22:51 32.76675 -78.21410 37881 ft 455 kts 203°
2026-04-30 22:52 32.67482 -78.24457 37878 ft 455 kts 203°
2026-04-30 22:53 32.55333 -78.28457 37876 ft 454 kts 202°
2026-04-30 22:53 32.47178 -78.31139 37880 ft 454 kts 202°
2026-04-30 22:55 32.31943 -78.36138 37883 ft 454 kts 202°
2026-04-30 22:56 32.19760 -78.40140 37878 ft 455 kts 202°
2026-04-30 22:57 32.04540 -78.45127 37879 ft 455 kts 201°
2026-04-30 22:58 31.92313 -78.49119 37888 ft 456 kts 201°
2026-04-30 22:59 31.73932 -78.55101 37883 ft 458 kts 201°